Temp
58 58 58 58 58 59 59 59 59 60 60 60 60 60 60 60 58 52 48 56 59 66 63 54 55 54 54 52 54 51 40 36 40 41 46 52 51 56 58 56 57 60 60 63 64
57 57 57 58 58 58 58 59 59 59 59 60 60 59 59 59 49 49 60 65 65 65 54 52 50 52 48 49 49 45 37 40 46 47 47 50 50 52 53 52 55 59 62 61 63
57 57 57 57 57 57 58 58 58 59 59 59 59 59 59 55 46 48 64 65 65 61 55 53 53 51 46 47 46 44 39 44 48 50 50 49 49 53 51 49 55 56 59 61 61
56 56 57 57 57 57 58 58 58 59 59 59 59 59 58 48 38 51 64 64 65 57 54 52 50 44 42 41 46 40 45 46 49 50 48 48 51 50 51 53 59 57 58 58 60
56 56 56 56 56 57 58 57 58 58 59 59 59 59 49 42 44 56 63 60 56 54 51 49 46 44 40 42 43 41 43 46 48 47 47 48 47 48 49 54 55 56 56 56 57
56 56 56 56 56 57 57 57 58 59 59 59 59 57 43 38 53 55 55 55 54 51 48 49 46 47 43 41 40 42 43 44 45 46 47 45 45 46 50 51 53 54 54 52 52
56 55 55 56 56 56 56 57 57 59 59 58 59 52 42 41 52 53 56 50 51 50 47 48 48 46 44 40 45 42 39 41 43 46 45 45 42 43 45 48 48 50 48 48 47
55 55 55 55 56 55 56 57 57 58 59 59 58 45 38 52 50 53 53 51 53 53 51 50 50 46 43 43 41 37 36 34 42 44 46 44 36 43 43 43 42 42 43 44 45
55 55 55 55 55 55 56 56 57 58 59 58 46 41 37 56 48 50 51 49 49 50 51 55 47 39 41 36 33 33 29 31 36 42 42 41 37 40 42 40 38 39 40 42 43
55 55 55 55 55 55 55 56 56 55 54 54 51 38 44 41 47 49 51 51 47 45 45 43 37 34 32 32 27 30 29 31 30 38 38 35 35 37 39 38 35 37 39 40 41
54 55 55 54 54 55 47 44 41 39 42 37 38 39 43 47 50 48 50 47 46 42 34 36 33 29 32 34 34 33 31 30 32 38 35 33 33 35 37 36 35 36 36 38 40
54 54 54 54 54 52 42 37 34 37 35 41 42 43 46 46 41 44 49 40 38 33 34 33 29 35 37 35 35 33 31 30 34 36 35 32 33 34 35 35 35 35 35 36 38
53 54 54 53 53 43 36 35 40 38 35 38 42 42 42 45 39 40 44 39 33 31 32 31 34 37 35 33 33 32 31 30 32 35 34 32 30 30 34 36 36 37 37 37 37
54 53 53 52 44 36 35 39 41 39 26 33 36 40 43 43 37 46 45 40 35 30 31 31 35 35 34 33 34 30 35 34 33 30 22 32 18 28 30 31 32 33 33 35 36
54 53 53 49 37 35 38 40 40 38 12 35 35 47 43 38 38 39 43 40 33 32 33 31 31 32 32 34 35 33 35 33 33 28 26 26 19 26 28 27 30 31 32 33 35
53 52 51 42 37 37 39 38 38 22 12 27 34 34 35 36 36 38 37 42 38 33 32 31 34 34 35 36 36 36 33 30 28 26 9 23 24 25 24 28 28 31 32 32 33
52 52 45 41 35 38 38 35 20 12 28 23 29 33 32 31 33 33 32 29 28 21 23 30 31 33 36 34 34 34 28 9 8 4 11 22 21 26 29 30 31 30 31 32 32
51 47 43 41 36 38 35 27 12 13 15 31 30 31 28 29 30 30 29 25 26 25 20 18 19 31 35 33 31 30 28 13 6 6 13 25 16 27 29 30 31 31 32 32 32
49 36 35 36 38 37 31 11 19 22 28 28 28 19 19 27 26 26 24 24 27 28 22 17 22 31 33 34 34 28 22 30 11 9 9 19 26 28 29 27 28 30 32 31 32
35 33 34 38 38 35 23 25 23 31 31 30 24 20 9 12 21 23 22 26 27 29 28 24 17 29 32 32 32 30 32 19 15 6 6 13 17 23 24 24 27 28 29 30 32
35 30 35 37 37 30 20 21 27 32 33 29 22 12 20 14 21 18 22 26 26 27 29 26 23 23 28 26 25 22 19 21 23 19 7 5 16 26 27 29 27 28 30 30 31
33 22 35 36 24 7 14 24 33 30 30 30 28 25 20 17 13 19 21 25 29 28 23 28 22 12 20 23 24 25 24 23 14 13 14 14 17 26 26 29 30 29 32 31 32
28 26 34 35 18 15 18 27 30 28 29 28 27 28 24 14 14 17 22 28 30 28 22 25 13 2 13 19 23 21 24 23 12 15 13 14 17 28 28 28 30 28 28 30 31
28 20 23 28 26 22 15 19 22 30 29 30 28 27 21 13 17 10 21 27 29 29 36 30 13 8 9 14 15 16 20 21 10 2 5 13 13 22 26 26 29 30 30 29 30
25 23 22 17 17 21 23 23 21 18 26 28 24 25 21 7 8 8 14 21 26 28 23 21 9 6 8 13 14 16 17 17 10 5 7 11 10 11 21 22 21 26 29 30 30
24 21 17 8 21 23 23 16 21 19 22 23 17 24 19 14 18 11 11 12 19 19 18 19 9 12 6 15 15 12 16 16 18 14 13 18 16 26 29 27 24 24 24 26 24
24 26 22 20 16 16 18 20 23 25 25 28 22 19 20 22 21 23 24 23 21 18 16 16 11 7 0 10 10 4 12 17 13 13 13 6 18 23 18 23 18 22 19 20 22
MSLP
1023.66 1023.47 1023.21 1023.08 1022.77 1022.58 1022.40 1022.15 1021.75 1021.44 1021.23 1021.02 1020.90 1020.70 1020.78 1020.54 1020.22 1020.03 1019.87 1019.63 1019.42 1019.04 1018.95 1019.16 1019.09 1019.35 1019.34 1019.74 1020.12 1020.60 1021.56 1021.83 1021.42 1020.82 1020.09 1019.65 1019.25 1018.69 1018.32 1018.16 1017.80 1017.34 1017.09 1016.89 1016.22
1023.72 1023.62 1023.39 1023.07 1022.89 1022.74 1022.43 1022.20 1021.95 1021.63 1021.27 1020.93 1020.83 1020.61 1020.50 1020.49 1020.52 1020.07 1019.85 1019.29 1019.16 1019.03 1018.99 1019.33 1019.58 1019.65 1020.20 1020.21 1020.47 1020.90 1021.68 1021.47 1020.94 1020.48 1020.27 1019.96 1019.53 1019.19 1018.75 1018.34 1018.02 1017.43 1016.96 1016.79 1016.26
1023.79 1023.69 1023.46 1023.18 1023.00 1022.73 1022.33 1022.06 1021.93 1021.59 1021.28 1020.99 1020.75 1020.64 1020.55 1020.66 1020.53 1020.06 1019.58 1019.40 1019.23 1019.29 1019.15 1019.25 1019.57 1020.05 1020.27 1020.65 1020.86 1021.09 1021.29 1021.12 1020.70 1020.45 1020.24 1019.93 1019.57 1019.23 1018.91 1018.47 1017.94 1017.80 1017.42 1017.08 1016.86
1023.72 1023.68 1023.56 1023.22 1023.00 1022.71 1022.19 1021.89 1021.68 1021.39 1021.12 1020.99 1020.74 1020.66 1020.55 1020.60 1020.80 1019.99 1019.72 1019.60 1019.47 1019.36 1019.37 1019.53 1019.74 1020.41 1020.69 1021.17 1021.03 1021.23 1021.05 1021.00 1020.59 1020.42 1020.41 1020.03 1019.62 1019.46 1019.07 1018.49 1017.80 1017.77 1017.88 1017.66 1017.38
1023.81 1023.63 1023.49 1023.32 1023.03 1022.65 1022.26 1021.91 1021.58 1021.17 1021.00 1020.93 1020.71 1020.71 1020.78 1020.56 1020.32 1019.84 1019.70 1019.62 1019.52 1019.47 1019.88 1020.06 1020.24 1020.62 1021.03 1021.19 1021.38 1021.31 1021.15 1020.96 1020.69 1020.59 1020.33 1019.98 1019.66 1019.70 1019.32 1018.78 1018.36 1017.77 1017.93 1017.99 1017.94
1023.89 1023.75 1023.49 1023.30 1022.94 1022.56 1022.10 1021.97 1021.48 1020.98 1020.84 1020.86 1020.86 1020.85 1021.00 1020.65 1020.17 1020.06 1019.76 1019.76 1019.90 1019.98 1020.12 1020.38 1020.67 1020.95 1021.30 1021.70 1021.75 1021.65 1021.39 1021.17 1020.61 1020.33 1020.16 1020.09 1019.78 1019.82 1019.70 1019.49 1019.02 1018.36 1018.69 1018.82 1018.84
1023.71 1023.64 1023.46 1023.18 1022.80 1022.58 1022.32 1021.79 1021.44 1020.94 1020.69 1020.63 1020.79 1021.18 1020.88 1020.76 1020.28 1020.13 1019.92 1020.28 1020.22 1020.23 1020.37 1020.55 1020.87 1020.99 1021.38 1022.06 1022.02 1021.96 1022.03 1021.50 1020.89 1020.45 1020.19 1020.21 1020.19 1020.59 1020.94 1020.39 1020.12 1020.06 1019.87 1019.94 1019.79
1023.68 1023.43 1023.28 1023.06 1022.79 1022.39 1022.10 1021.90 1021.42 1021.25 1020.85 1020.68 1020.80 1021.18 1020.86 1020.29 1020.28 1020.22 1020.09 1020.32 1020.45 1020.33 1020.53 1020.55 1020.87 1021.42 1021.69 1022.09 1022.55 1022.54 1022.58 1022.31 1021.34 1020.87 1020.61 1020.61 1021.09 1021.39 1021.54 1021.22 1021.45 1021.27 1021.23 1020.89 1020.80
1023.46 1023.36 1023.04 1022.81 1022.59 1022.25 1021.77 1021.56 1021.16 1021.10 1021.23 1021.17 1021.15 1021.45 1021.00 1020.35 1020.56 1020.42 1020.45 1020.61 1020.83 1020.77 1020.86 1020.93 1021.40 1022.55 1022.53 1022.79 1023.40 1023.41 1023.30 1022.97 1022.05 1021.72 1021.60 1021.60 1021.79 1022.30 1022.46 1022.34 1022.62 1022.46 1022.06 1021.76 1021.45
1023.45 1023.18 1023.11 1022.59 1022.47 1022.08 1021.73 1021.51 1021.06 1020.89 1021.26 1021.41 1021.37 1021.60 1021.15 1021.04 1021.01 1020.89 1020.86 1020.83 1021.23 1021.25 1021.45 1021.97 1022.82 1023.35 1023.74 1023.53 1023.82 1023.75 1023.68 1023.34 1022.93 1022.42 1022.33 1022.42 1022.66 1023.02 1023.17 1023.28 1023.57 1023.47 1022.93 1022.50 1022.12
1023.47 1023.23 1022.86 1022.75 1022.01 1021.85 1021.97 1021.81 1022.14 1022.22 1021.62 1021.93 1021.88 1021.60 1021.39 1021.12 1020.91 1021.17 1020.94 1021.20 1021.65 1021.91 1022.54 1023.06 1023.57 1023.87 1023.85 1023.66 1023.71 1023.72 1023.77 1023.68 1023.21 1022.60 1022.80 1022.91 1023.30 1023.67 1023.93 1023.93 1024.08 1024.01 1023.70 1023.43 1022.92
1023.48 1023.32 1022.83 1022.66 1022.22 1022.02 1022.26 1022.91 1023.46 1023.76 1022.92 1022.14 1022.07 1021.74 1021.40 1021.20 1021.28 1021.34 1021.16 1021.52 1021.99 1022.66 1023.12 1023.61 1023.62 1023.44 1023.50 1023.56 1023.65 1023.87 1023.90 1023.76 1023.23 1022.95 1022.98 1023.11 1023.46 1023.98 1024.25 1024.56 1024.63 1024.48 1024.38 1024.15 1023.55
1023.27 1023.24 1022.92 1022.54 1022.22 1022.72 1023.20 1023.59 1023.78 1023.79 1023.21 1022.72 1022.09 1021.86 1021.63 1021.40 1021.58 1021.65 1021.67 1021.90 1022.36 1022.87 1023.35 1023.72 1023.48 1023.35 1023.46 1023.57 1023.64 1023.65 1023.81 1023.74 1023.57 1023.40 1023.35 1023.54 1023.71 1024.09 1024.49 1024.73 1024.93 1024.85 1024.84 1024.57 1024.27
1023.10 1023.03 1022.72 1022.67 1022.70 1023.37 1023.54 1023.43 1023.55 1023.62 1023.77 1023.34 1022.35 1021.94 1021.72 1021.58 1022.01 1021.86 1021.89 1022.22 1022.77 1023.07 1023.48 1023.71 1023.28 1023.19 1023.24 1023.25 1023.24 1023.46 1023.16 1023.62 1023.99 1024.36 1024.70 1024.35 1024.38 1024.00 1024.31 1025.02 1025.42 1025.51 1025.27 1025.10 1024.88
1022.90 1023.06 1022.85 1022.79 1023.27 1023.68 1023.82 1023.62 1023.45 1023.58 1024.15 1023.64 1022.61 1021.88 1021.87 1022.12 1022.28 1022.15 1022.01 1022.07 1022.67 1023.30 1023.67 1023.23 1023.17 1023.18 1023.08 1022.72 1022.92 1023.13 1023.34 1024.09 1024.61 1025.28 1025.54 1025.46 1025.78 1023.71 1024.46 1025.05 1025.47 1025.79 1025.82 1025.68 1025.56
1022.83 1022.88 1022.87 1023.34 1023.73 1023.84 1023.68 1023.56 1023.63 1024.33 1024.81 1024.00 1023.28 1022.70 1022.71 1022.83 1022.75 1022.61 1022.53 1022.28 1022.80 1023.41 1023.62 1023.41 1023.07 1022.93 1022.44 1022.34 1022.59 1023.17 1024.04 1025.14 1026.07 1026.64 1026.75 1025.67 1025.63 1023.53 1024.08 1024.18 1025.39 1025.95 1026.12 1026.13 1025.93
1022.64 1022.74 1023.02 1023.44 1023.76 1023.62 1023.72 1024.09 1025.20 1025.30 1025.14 1024.79 1024.16 1023.69 1023.70 1023.92 1023.66 1023.38 1023.41 1023.46 1023.67 1024.18 1024.22 1023.76 1023.17 1022.46 1022.22 1022.57 1022.97 1023.43 1024.63 1026.62 1027.80 1028.40 1027.04 1026.16 1026.06 1023.23 1023.39 1023.84 1024.65 1025.76 1026.20 1026.35 1026.31
1022.47 1022.83 1023.11 1023.36 1023.37 1023.64 1023.90 1024.71 1026.01 1025.54 1025.32 1025.13 1024.97 1024.92 1024.99 1025.07 1024.66 1024.31 1024.34 1024.62 1024.51 1024.70 1025.14 1024.76 1023.57 1022.85 1022.46 1022.41 1022.76 1023.49 1024.29 1026.24 1027.50 1028.81 1027.53 1026.52 1025.38 1023.52 1023.87 1024.27 1024.88 1025.48 1025.95 1026.13 1026.34
1022.54 1023.34 1023.53 1023.56 1023.34 1023.52 1024.43 1025.36 1024.68 1024.63 1024.50 1024.98 1025.69 1026.08 1026.39 1026.22 1025.87 1025.46 1025.27 1025.15 1024.76 1024.88 1025.22 1025.19 1024.29 1023.19 1022.98 1022.85 1023.15 1023.90 1024.58 1024.96 1027.17 1029.23 1028.33 1025.94 1024.58 1024.40 1024.68 1025.03 1025.44 1025.63 1025.81 1025.96 1026.12
1023.01 1023.66 1023.91 1023.62 1023.45 1023.81 1025.00 1025.31 1024.70 1024.39 1024.28 1024.68 1025.52 1026.38 1027.20 1027.38 1027.06 1026.54 1025.83 1025.21 1025.11 1025.19 1025.29 1025.51 1025.33 1024.13 1023.76 1023.68 1023.75 1023.92 1024.40 1025.71 1027.01 1028.40 1028.26 1026.20 1025.44 1024.33 1024.80 1025.26 1025.70 1025.96 1025.96 1025.98 1026.08
1023.07 1023.94 1024.12 1023.87 1023.64 1024.39 1025.58 1025.34 1024.56 1024.17 1024.04 1024.55 1025.27 1026.54 1027.26 1027.69 1027.68 1027.29 1026.50 1025.82 1025.48 1025.68 1025.79 1026.03 1026.27 1025.46 1024.96 1024.80 1024.68 1024.92 1025.09 1025.94 1026.57 1027.31 1027.71 1027.01 1025.04 1024.45 1024.51 1024.75 1025.27 1025.61 1025.87 1026.07 1026.17
1022.95 1024.29 1024.17 1024.03 1024.94 1026.29 1026.05 1024.96 1024.31 1024.21 1024.32 1024.50 1025.11 1026.10 1027.03 1027.84 1028.43 1027.97 1026.96 1026.19 1025.88 1025.91 1026.34 1026.58 1027.18 1027.29 1026.39 1026.08 1025.98 1025.87 1025.91 1026.46 1027.47 1028.09 1028.07 1027.61 1025.27 1024.76 1024.14 1024.12 1024.92 1025.51 1025.74 1026.00 1026.14
1023.06 1024.19 1024.33 1024.17 1025.15 1026.22 1025.94 1025.25 1024.57 1024.43 1024.44 1024.79 1025.38 1025.95 1027.15 1028.14 1029.05 1028.45 1027.46 1026.76 1026.44 1026.50 1026.73 1027.28 1028.46 1028.83 1027.88 1027.56 1026.97 1026.78 1026.93 1027.46 1028.20 1028.59 1028.52 1028.12 1025.67 1025.20 1024.93 1025.03 1025.40 1025.65 1025.68 1025.69 1025.74
1022.87 1024.45 1025.12 1025.03 1024.98 1024.91 1025.73 1025.28 1024.75 1024.41 1024.48 1024.73 1025.35 1026.19 1027.47 1028.66 1029.28 1029.17 1028.34 1027.52 1027.12 1027.02 1027.08 1027.80 1029.29 1029.86 1029.64 1028.91 1028.41 1028.07 1027.83 1028.16 1028.83 1029.99 1029.17 1027.53 1026.48 1026.14 1025.84 1025.69 1025.61 1025.53 1025.51 1025.68 1025.81
1022.54 1023.34 1023.68 1025.19 1025.22 1025.09 1024.83 1024.79 1024.63 1024.76 1024.94 1025.10 1025.69 1026.09 1027.29 1029.40 1029.95 1029.70 1029.23 1028.35 1027.93 1027.81 1028.13 1028.92 1030.25 1030.63 1030.39 1030.06 1029.41 1028.58 1028.54 1028.72 1029.30 1029.37 1029.34 1027.60 1026.64 1026.30 1025.64 1025.67 1025.67 1025.51 1025.44 1025.65 1025.64
1022.19 1023.22 1024.06 1024.58 1024.41 1024.77 1025.00 1025.13 1024.46 1024.91 1025.06 1025.39 1025.91 1026.05 1027.07 1028.14 1028.18 1028.84 1028.91 1029.21 1028.43 1028.85 1029.02 1029.69 1030.53 1031.38 1031.37 1030.59 1029.82 1028.98 1028.32 1028.27 1028.60 1028.59 1027.93 1027.21 1025.46 1025.80 1025.34 1025.57 1025.63 1025.76 1025.85 1025.83 1025.76
1021.88 1022.48 1022.72 1024.74 1025.01 1025.04 1024.44 1023.87 1023.94 1024.28 1024.89 1024.61 1025.14 1026.13 1026.95 1026.91 1027.40 1027.61 1027.98 1028.21 1028.43 1028.88 1029.53 1030.13 1030.81 1031.97 1032.07 1031.58 1030.48 1028.65 1026.60 1026.53 1026.88 1026.61 1026.75 1026.88 1025.02 1025.30 1025.55 1025.54 1025.53 1025.71 1025.83 1025.91 1025.79
Wind_Speed
12 13 13 13 13 13 13 13 11 10 10 9 8 9 9 10 10 1 2 2 4 8 4 2 3 3 3 3 3 3 3 3 3 4 3 2 6 4 2 1 4 5 1 3 10
11 12 12 13 14 14 14 14 13 12 11 10 8 6 7 8 2 3 3 5 4 4 4 4 2 2 3 2 2 4 3 6 4 2 1 5 1 4 4 6 3 4 5 5 6
12 13 13 13 14 14 14 15 14 13 12 10 7 6 6 5 1 1 5 6 4 4 3 2 3 2 3 1 1 2 4 3 2 3 0 1 3 2 3 4 5 6 6 9 7
11 12 14 14 14 14 14 13 12 13 11 8 6 5 6 0 3 2 6 7 5 1 3 3 4 3 3 1 0 1 3 3 3 0 4 3 2 4 4 6 7 6 5 4 7
11 12 13 14 14 14 15 13 12 10 10 8 3 4 3 2 2 3 5 6 3 3 4 3 3 3 3 2 1 2 2 2 5 7 6 3 6 4 5 8 9 6 5 6 5
12 13 14 15 15 16 14 14 11 9 9 7 2 3 2 3 3 4 4 3 5 4 3 5 2 2 3 1 0 2 3 6 6 5 3 4 3 3 2 8 9 7 7 7 7
11 13 14 15 16 17 15 12 10 8 8 1 2 2 1 2 3 4 5 2 2 1 3 2 2 3 2 1 4 2 5 6 2 3 2 2 2 4 9 10 9 12 8 8 9
12 12 14 15 17 15 14 13 9 9 4 5 4 2 1 2 1 3 3 3 4 4 4 3 3 4 3 1 6 3 4 3 4 6 3 2 5 7 12 7 9 10 11 9 10
11 12 13 15 17 15 14 11 6 5 1 3 3 2 2 5 3 2 3 3 2 4 6 4 6 3 4 4 4 6 1 1 7 4 5 5 5 6 10 9 9 9 10 10 12
12 12 15 15 16 15 15 7 2 3 2 1 0 2 3 2 2 2 3 4 5 3 5 7 6 4 3 4 3 1 1 2 4 3 5 4 4 4 7 8 7 8 10 11 12
11 13 14 16 14 12 6 3 5 3 4 1 1 2 1 3 1 4 2 3 3 7 3 4 4 4 5 4 3 4 2 3 5 5 2 3 3 4 5 6 8 8 9 10 11
11 13 14 15 13 7 3 4 1 1 2 1 3 2 1 0 3 2 1 4 3 3 2 4 4 4 3 3 4 2 2 4 6 4 1 2 5 0 3 3 4 6 9 10 12
8 12 15 14 4 5 3 3 1 2 4 3 0 1 1 2 1 1 1 2 3 3 3 4 3 3 4 3 5 4 4 5 6 4 3 3 4 4 1 3 5 6 6 9 11
7 10 13 15 3 1 2 2 1 2 6 3 2 1 1 2 3 1 2 3 2 2 4 4 3 3 4 4 6 3 6 4 3 2 4 2 5 5 4 2 3 5 6 8 10
8 8 11 8 3 2 0 3 1 2 5 2 1 2 2 3 3 2 2 2 3 3 4 4 2 3 4 6 7 5 4 3 1 2 3 1 2 5 5 5 3 2 5 6 7
4 6 6 3 2 1 2 1 3 10 7 0 2 2 2 4 1 0 1 5 2 2 1 6 2 3 5 2 6 7 5 6 4 2 3 6 6 5 7 6 4 2 3 5 6
3 5 3 3 2 1 1 3 8 6 3 4 2 1 2 0 1 1 1 1 4 3 2 4 4 3 3 3 1 3 5 3 5 4 8 2 3 6 5 6 8 8 3 4 4
1 4 2 2 0 1 3 7 5 3 6 0 1 2 3 0 1 1 2 2 3 3 2 3 7 5 3 5 6 6 8 8 8 4 4 2 7 4 1 7 8 6 4 3 5
6 2 2 2 2 3 6 5 10 8 6 9 3 4 4 2 2 1 4 5 5 7 7 5 6 2 2 1 3 3 5 2 8 2 3 4 4 1 4 5 5 5 4 3 3
3 2 0 3 1 3 6 6 4 3 5 3 7 3 6 4 4 4 4 3 3 3 2 1 4 1 1 0 2 3 5 3 3 3 6 4 5 5 9 8 6 5 4 2 2
3 3 2 2 2 5 4 7 4 4 3 5 6 4 4 6 5 4 3 0 2 3 2 3 4 3 0 4 4 1 2 2 2 4 6 1 6 3 4 12 12 8 6 4 3
3 1 2 1 4 2 4 6 5 4 2 1 3 4 7 5 3 3 5 3 2 4 5 3 4 4 8 2 2 2 2 3 4 6 2 3 8 5 5 9 11 7 5 4 4
4 2 2 1 4 3 3 2 4 4 4 5 5 2 3 6 1 4 2 1 0 3 5 4 2 3 10 5 3 3 1 3 3 1 6 4 6 3 6 7 4 5 5 5 5
4 3 4 2 1 6 6 4 4 2 3 4 4 5 5 2 4 3 3 1 1 2 4 3 2 7 7 3 2 2 3 3 5 4 3 7 7 1 3 5 7 7 6 7 7
2 4 2 5 4 4 4 6 5 6 2 3 1 4 6 3 3 3 2 2 1 2 3 5 5 4 4 7 4 6 6 7 7 6 6 5 11 7 10 9 8 7 6 7 7
6 5 3 2 1 8 5 5 9 3 8 5 4 6 6 7 8 9 7 4 6 2 3 1 3 3 4 5 5 8 9 11 12 8 12 15 24 8 9 6 7 8 8 9 8
1 2 5 2 2 6 6 7 9 9 3 2 7 6 5 7 7 4 3 4 5 8 6 5 6 3 6 5 7 11 12 18 7 7 8 8 14 4 5 8 8 9 7 9 10
Wind_Direction
6 1 358 353 351 345 341 337 333 332 328 327 328 331 330 329 331 352 54 278 312 317 33 342 42 27 40 79 64 120 73 238 253 162 239 360 17 314 277 289 320 312 143 247 310
4 359 353 352 349 341 336 334 331 326 322 320 317 320 325 333 338 51 295 340 3 13 72 73 79 72 34 65 42 91 132 222 222 213 339 321 9 322 348 340 315 308 286 304 333
359 355 349 349 344 337 336 334 330 325 319 319 317 317 328 353 61 38 335 1 40 56 79 98 84 54 81 44 92 149 194 215 273 260 126 290 305 275 307 302 238 255 290 329 331
354 353 346 345 342 337 336 336 330 327 327 318 324 318 328 290 119 334 350 358 8 67 74 67 64 67 96 160 255 125 247 220 259 32 356 305 267 294 234 251 281 277 280 287 314
354 349 347 343 340 337 338 332 330 331 317 310 333 332 342 71 103 343 7 357 28 50 51 66 83 114 145 185 252 186 278 294 290 296 263 261 245 242 272 291 307 312 293 298 333
349 346 346 341 339 338 335 326 324 321 335 318 344 31 358 93 313 347 10 38 40 46 49 42 112 122 98 12 182 308 300 290 293 286 266 245 245 156 258 347 337 27 22 14 6
349 345 344 340 341 339 332 328 327 323 341 3 122 33 19 126 346 334 43 31 9 78 101 64 68 87 106 24 328 336 338 326 335 318 357 259 304 121 358 341 338 355 26 14 18
349 345 344 341 340 337 331 329 329 327 15 102 89 41 135 321 285 32 19 45 30 44 89 55 72 99 74 137 7 24 53 1 306 336 354 67 271 23 354 348 22 16 1 14 10
344 345 344 341 340 332 328 316 312 333 54 70 41 24 48 329 47 354 32 94 37 33 38 69 65 79 29 83 2 13 283 312 317 38 352 48 276 354 8 37 22 9 8 9 2
347 344 340 343 339 331 329 304 25 60 7 319 219 57 10 49 348 6 9 68 81 62 30 41 48 70 38 91 234 235 246 265 268 310 347 321 272 339 12 36 27 3 9 9 10
342 341 342 339 340 340 353 16 27 357 56 97 228 90 43 310 17 20 7 65 35 48 72 7 61 207 230 193 96 120 167 261 262 276 282 302 300 345 11 38 25 12 11 5 7
339 334 341 339 333 2 65 77 97 230 33 105 311 330 244 130 76 358 63 95 76 102 108 28 239 226 190 141 159 158 205 258 273 245 194 342 282 156 26 45 36 18 14 8 3
334 335 339 341 4 40 65 103 295 184 96 21 142 63 321 93 129 275 82 104 107 119 174 178 184 91 144 155 160 195 190 219 228 327 265 339 277 220 263 70 28 32 17 18 12
326 341 345 336 55 272 51 295 241 199 75 308 353 358 12 101 53 354 19 124 37 154 173 229 277 219 184 202 165 202 203 215 222 142 244 57 275 248 185 127 37 16 18 17 8
318 345 355 31 158 80 234 287 242 59 22 301 35 311 33 106 151 1 315 55 178 185 123 249 201 200 208 213 175 214 132 140 152 126 351 218 78 263 133 207 179 33 13 13 3
354 345 12 31 47 310 291 287 53 46 260 28 328 360 94 7 23 81 72 46 119 164 214 239 290 235 221 162 175 147 85 49 48 67 329 217 172 241 190 187 158 156 34 12 1
319 343 87 119 205 288 35 43 44 126 323 266 162 96 102 86 125 129 129 156 176 90 297 311 224 267 185 138 133 131 95 332 347 8 226 322 203 259 195 158 151 153 104 13 6
54 68 35 104 213 121 60 54 101 225 215 190 112 79 168 240 230 114 110 263 237 103 116 174 317 187 182 207 192 191 162 164 206 210 259 124 237 262 109 110 120 123 124 70 16
112 24 54 328 142 87 76 73 203 200 159 154 78 96 301 287 196 151 212 215 206 179 176 156 268 295 246 311 148 207 194 166 103 42 32 225 289 167 135 132 134 141 121 65 20
98 93 238 318 92 71 80 237 207 186 135 143 175 144 184 235 168 184 201 201 190 182 110 172 301 238 303 88 320 203 166 98 358 160 232 277 274 235 198 189 182 182 175 167 342
84 94 303 347 66 56 170 224 216 217 151 158 190 136 209 187 197 207 224 185 135 141 130 148 141 276 73 204 200 4 285 11 148 155 180 232 258 21 251 191 183 198 199 215 269
128 110 319 326 71 0 173 189 182 153 126 130 124 123 176 153 158 232 223 227 165 159 164 192 163 242 235 299 282 282 263 171 164 246 207 159 262 330 290 172 165 185 196 230 249
132 129 326 148 161 225 294 232 194 134 183 172 176 148 131 161 109 213 223 54 123 163 166 202 289 358 333 358 4 226 159 108 115 107 202 193 256 25 54 87 98 178 227 247 265
117 122 334 37 321 144 135 225 195 197 146 149 133 99 94 71 25 198 233 149 33 179 141 114 124 174 203 202 136 233 194 147 131 124 201 227 286 132 139 184 215 230 242 246 258
67 228 190 195 247 159 157 148 146 164 199 170 82 190 153 125 14 231 280 293 315 338 88 131 209 166 252 248 249 223 213 203 185 200 185 243 231 179 215 220 235 243 273 282 279
146 150 6 122 136 135 185 222 163 195 149 209 165 174 163 161 187 201 154 200 207 355 136 109 234 135 293 291 283 270 233 221 221 219 250 251 268 222 251 222 245 257 260 272 278
184 36 108 154 81 104 210 191 192 145 257 167 157 120 178 222 180 184 173 162 181 164 172 157 145 114 262 339 327 300 217 216 194 210 185 199 245 147 225 235 234 244 233 245 256